Probability
0 0 0 0 0 0 0 0 0 0 0 0 0 0 0 0 0 0 0 0 0 0 0 0 0 0 0 0 0 0 0 0 0 0 0 0 0 0 0 0 0 0 0
0 0 0 0 0 0 0 0 0 0 0 0 0 0 0 0 0 0 0 0 0 0 0 0 0 0 0 0 0 0 0 0 0 0 0 0 0 0 0 0 0 0 0
0 0 0 0 0 0 0 0 0 0 0 0 0 0 0 0 0 0 0 0 0 0 0 0 0 0 0 0 0 0 0 0 0 0 0 0 0 0 0 0 0 0 0
0 0 0 0 0 0 0 0 0 0 0 0 0 0 0 0 0 0 0 0 0 0 0 0 0 0 0 0 0 0 0 0 0 0 0 0 0 0 0 0 0 0 0
0 0 0 0 0 0 0 0 0 0 0 0 0 0 0 0 0 0 0 0 0 0 0 0 0 0 0 0 0 0 0 0 0 0 0 0 0 0 0 0 0 0 0
0 0 0 0 0 0 0 0 0 0 0 0 0 0 0 0 0 0 0 0 0 0 0 0 0 0 0 0 0 0 0 0 0 0 0 0 0 0 0 0 0 0 0
0 0 0 0 0 0 0 0 0 0 0 0 0 0 0 0 0 0 0 0 0 0 0 0 0 0 0 0 0 0 0 0 0 0 0 0 0 0 0 0 0 0 0
0 0 0 0 0 0 0 0 0 0 0 0 0 0 0 0 0 0 0 0 0 0 0 0 0 0 0 0 0 0 0 0 0 0 0 0 0 0 0 0 0 0 0
0 0 0 0 0 0 0 0 0 0 0 0 0 0 0 0 0 0 0 0 0 0 0 0 0 0 0 0 0 0 0 0 0 0 0 0 0 0 0 0 0 0 0
0 0 0 0 0 0 0 0 0 0 0 0 0 0 0 0 0 0 0 0 0 0 0 0 0 0 0 0 0 0 0 0 0 0 0 0 0 0 0 0 0 0 0
0 0 0 0 0 0 0 0 0 0 0 0 0 0 0 0 0 0 0 0 0 0 0 0 0 0 0 0 0 0 0 0 0 0 0 0 0 0 0 0 0 0 0
0 0 0 0 0 0 0 0 0 0 0 0 0 0 0 0 0 0 0 0 0 0 0 0 0 0 0 0 0 0 0 0 0 0 0 0 0 0 0 0 0 0 0
0 0 0 0 0 0 0 0 0 0 0 0 0 0 0 0 0 0 0 0 0 0 0 0 0 0 0 0 0 0 0 0 0 0 0 0 0 0 0 0 0 0 0
0 0 0 0 0 0 0 0 0 0 0 0 0 0 0 0 0 0 0 0 0 0 0 0 0 0 0 0 0 0 0 0 0 0 0 0 0 0 0 0 0 0 0
0 0 0 0 0 0 0 0 0 0 0 0 0 0 0 0 0 0 0 0 0 0 0 0 0 0 0 0 0 0 0 0 0 0 0 0 0 0 0 0 0 0 0
0 0 0 0 0 0 0 0 0 0 0 0 0 0 0 0 0 0 0 0 0 0 0 0 0 0 0 0 0 0 0 0 0 0 0 0 0 0 0 0 0 0 0
0 0 0 0 0 0 0 0 0 0 0 0 0 0 0 0 0 0 0 0 0 0 0 0 0 0 0 0 0 0 0 0 0 0 0 0 0 0 0 0 0 0 0
0 0 0 0 0 0 0 0 0 0 0 0 0 0 0 0 0 0 0 0 0 0 0 0 0 0 0 0 0 0 0 0 0 0 0 0 0 0 0 0 0 0 0
0 0 0 0 0 0 0 0 0 0 0 0 0 0 0 0 0 0 0 0 0 0 0 0 0 0 0 0 0 0 0 0 0 0 0 0 0 0 0 0 0 0 0
0 0 0 0 0 0 0 0 0 0 0 0 0 0 0 0 0 0 0 0 0 0 0 0 0 0 0 0 0 0 0 0 0 0 0 0 0 0 0 0 0 0 0
0 0 0 0 0 0 0 0 0 0 0 0 0 0 0 0 0 0 0 0 0 0 0 0 0 0 0 0 0 0 0 0 0 0 0 0 0 0 0 0 0 0 0
0 0 0 0 0 0 0 0 0 0 0 0 0 0 0 0 0 0 0 0 0 0 0 0 0 0 0 0 0 0 0 0 0 0 0 0 0 0 0 0 0 0 0
0 0 0 0 0 0 0 0 0 0 0 0 0 0 0 0 0 0 0 0 0 0 0 0 0 0 0 0 0 0 0 0 0 0 0 0 0 0 0 0 0 0 0
0 0 0 0 0 0 0 0 0 0 0 0 0 0 0 0 0 0 0 0 0 0 0 0 0 0 0 0 0 0 0 0 0 0 0 0 0 0 0 0 0 0 0
0 0 0 0 0 0 0 0 0 0 0 0 0 0 0 0 0 0 0 0 0 0 0 0 0 0 0 0 0 0 0 0 0 0 0 0 0 0 0 0 0 0 0
0 0 0 0 0 0 0 0 0 0 0 0 0 0 0 0 0 0 0 0 0 0 0 0 0 0 0 0 0 0 0 0 0 0 0 0 0 0 0 0 0 0 0
Height
5723 5718 5712 5705 5698 5691 5685 5677 5670 5662 5654 5645 5637 5629 5621 5612 5604 5594 5587 5579 5573 5568 5563 5557 5553 5547 5542 5538 5533 5529 5526 5521 5514 5521 5519 5518 5515 5513 5514 5512 5509 5505 5504
5711 5704 5697 5690 5683 5675 5667 5659 5651 5643 5634 5625 5617 5607 5598 5589 5580 5569 5561 5553 5547 5543 5539 5534 5530 5525 5521 5516 5510 5507 5504 5500 5492 5491 5498 5497 5495 5493 5492 5491 5490 5488 5487
5696 5689 5681 5674 5666 5657 5649 5641 5632 5623 5613 5603 5593 5582 5573 5563 5554 5545 5536 5530 5525 5521 5516 5510 5505 5500 5496 5491 5487 5484 5481 5478 5473 5468 5473 5476 5475 5474 5472 5473 5472 5469 5468
5679 5671 5664 5657 5648 5639 5630 5620 5610 5599 5589 5579 5568 5557 5546 5536 5526 5518 5511 5506 5503 5499 5492 5487 5482 5475 5470 5467 5463 5461 5458 5455 5454 5451 5449 5452 5454 5454 5452 5452 5452 5450 5449
5662 5655 5647 5639 5629 5619 5609 5597 5585 5574 5563 5552 5542 5532 5521 5513 5504 5496 5490 5485 5481 5476 5470 5465 5459 5453 5446 5441 5438 5437 5435 5433 5432 5430 5428 5429 5432 5434 5432 5430 5430 5429 5430
5645 5636 5627 5618 5607 5595 5583 5572 5561 5550 5538 5528 5518 5510 5503 5495 5486 5478 5471 5467 5460 5454 5450 5445 5440 5432 5425 5421 5416 5414 5412 5409 5409 5407 5408 5409 5410 5410 5409 5407 5407 5407 5409
5627 5616 5606 5596 5584 5571 5560 5548 5537 5527 5517 5509 5500 5492 5485 5477 5468 5460 5453 5445 5438 5431 5425 5420 5415 5409 5403 5397 5395 5394 5393 5389 5385 5384 5385 5389 5387 5388 5385 5385 5384 5383 5387
5607 5596 5584 5572 5559 5547 5535 5524 5515 5506 5498 5490 5482 5473 5467 5459 5450 5441 5431 5423 5415 5406 5398 5391 5386 5382 5375 5367 5368 5370 5371 5369 5366 5363 5362 5365 5365 5366 5363 5362 5361 5362 5366
5585 5571 5557 5545 5534 5524 5515 5505 5496 5488 5480 5472 5464 5456 5449 5441 5430 5419 5407 5398 5390 5381 5372 5365 5357 5352 5347 5339 5338 5342 5345 5347 5345 5344 5344 5345 5345 5345 5343 5341 5342 5344 5348
5563 5548 5533 5522 5513 5504 5495 5487 5478 5470 5462 5454 5446 5437 5428 5419 5407 5394 5380 5369 5361 5352 5345 5338 5331 5325 5321 5317 5314 5316 5320 5324 5325 5327 5327 5327 5326 5326 5326 5327 5329 5331 5334
5539 5526 5515 5504 5494 5485 5477 5468 5461 5453 5444 5435 5427 5418 5407 5396 5382 5369 5355 5343 5334 5326 5320 5314 5309 5303 5301 5299 5296 5297 5300 5304 5307 5309 5311 5311 5310 5311 5313 5316 5317 5320 5324
5519 5508 5497 5487 5477 5468 5460 5452 5442 5431 5422 5412 5402 5392 5382 5370 5355 5341 5330 5319 5311 5304 5299 5294 5290 5286 5284 5283 5283 5284 5287 5290 5293 5295 5296 5297 5298 5300 5303 5306 5308 5311 5314
5501 5490 5480 5471 5461 5451 5442 5432 5422 5410 5397 5385 5373 5362 5353 5343 5329 5316 5307 5299 5293 5288 5283 5277 5273 5272 5271 5271 5272 5274 5277 5280 5282 5284 5285 5286 5287 5290 5294 5298 5301 5304 5306
5483 5474 5464 5455 5445 5435 5424 5412 5400 5385 5371 5357 5344 5333 5323 5315 5304 5294 5288 5284 5282 5278 5273 5268 5262 5261 5261 5261 5262 5265 5269 5272 5274 5275 5276 5277 5279 5282 5286 5290 5293 5295 5296
5468 5458 5448 5438 5427 5416 5404 5391 5378 5364 5344 5330 5318 5308 5299 5294 5287 5280 5275 5273 5271 5267 5263 5260 5255 5252 5251 5252 5255 5259 5264 5266 5267 5268 5268 5269 5272 5277 5280 5283 5286 5287 5288
5452 5442 5430 5418 5407 5394 5382 5373 5360 5344 5330 5314 5301 5293 5286 5280 5275 5270 5266 5263 5259 5256 5253 5251 5247 5244 5243 5246 5250 5256 5259 5261 5261 5262 5262 5264 5267 5271 5276 5279 5282 5284 5287
5436 5425 5413 5399 5385 5371 5358 5346 5339 5334 5320 5307 5295 5286 5279 5273 5267 5262 5257 5254 5251 5248 5245 5243 5240 5237 5238 5242 5247 5252 5255 5256 5257 5258 5259 5262 5265 5269 5272 5276 5279 5282 5284
5421 5407 5392 5378 5364 5351 5340 5330 5322 5315 5309 5300 5290 5281 5273 5267 5261 5255 5250 5247 5245 5241 5239 5236 5234 5233 5235 5240 5245 5249 5251 5253 5254 5256 5258 5260 5262 5266 5270 5272 5275 5279 5281
5403 5388 5372 5359 5348 5337 5328 5318 5310 5302 5295 5289 5282 5275 5268 5261 5256 5250 5245 5241 5238 5236 5234 5231 5229 5230 5235 5239 5244 5246 5249 5251 5252 5254 5256 5257 5260 5263 5267 5270 5273 5276 5278
5386 5370 5355 5344 5334 5324 5315 5306 5299 5292 5284 5277 5271 5265 5261 5256 5252 5247 5241 5236 5232 5230 5228 5227 5227 5230 5235 5240 5243 5245 5247 5249 5252 5253 5256 5257 5260 5263 5267 5270 5272 5274 5275
5370 5355 5342 5330 5319 5311 5304 5296 5289 5282 5274 5267 5261 5256 5251 5247 5244 5240 5235 5231 5227 5225 5224 5224 5226 5231 5236 5240 5243 5245 5246 5248 5250 5253 5256 5259 5262 5265 5268 5270 5271 5271 5270
5355 5342 5331 5320 5310 5301 5294 5286 5278 5271 5263 5257 5252 5248 5242 5238 5236 5232 5229 5226 5223 5222 5221 5222 5227 5232 5237 5240 5242 5244 5246 5248 5251 5253 5257 5261 5265 5267 5269 5269 5268 5266 5265
5342 5331 5321 5311 5301 5292 5283 5275 5267 5260 5254 5248 5244 5239 5235 5232 5229 5226 5223 5222 5220 5220 5220 5223 5228 5234 5238 5241 5243 5245 5247 5250 5253 5256 5260 5265 5267 5268 5268 5267 5266 5264 5262
5327 5317 5308 5300 5291 5281 5272 5265 5258 5251 5245 5240 5236 5232 5228 5225 5223 5220 5218 5218 5218 5219 5220 5225 5231 5235 5239 5242 5244 5247 5249 5252 5256 5261 5266 5269 5270 5270 5269 5268 5266 5263 5259
5315 5305 5296 5288 5279 5270 5262 5255 5248 5242 5237 5232 5228 5224 5221 5219 5218 5216 5215 5215 5216 5218 5221 5227 5232 5237 5241 5244 5247 5249 5253 5258 5263 5267 5271 5273 5273 5272 5271 5270 5267 5263 5256
5301 5291 5283 5275 5267 5259 5252 5245 5239 5233 5229 5225 5221 5218 5216 5214 5213 5213 5213 5214 5216 5218 5224 5230 5235 5240 5243 5246 5250 5255 5260 5265 5269 5273 5275 5277 5278 5277 5276 5273 5267 5261 5254
Wind_Speed
53 55 58 60 61 63 65 69 72 75 78 80 82 84 86 87 88 89 89 89 88 87 85 84 83 81 80 78 76 75 74 72 70 67 63 60 61 60 59 58 57 55 52
59 61 63 65 67 70 73 77 80 82 85 88 90 92 93 92 91 90 88 87 86 85 84 82 80 79 77 77 77 77 75 73 71 70 64 59 56 55 55 54 54 56 54
63 65 68 70 73 77 80 84 87 90 93 96 97 96 95 94 92 90 87 86 84 82 82 81 79 78 76 75 75 75 76 75 73 72 68 62 58 55 54 52 50 50 49
68 70 74 77 80 83 87 90 94 96 98 99 98 96 93 91 88 86 86 85 82 80 79 79 78 77 76 74 74 74 75 74 71 69 67 62 59 55 55 53 51 49 48
73 76 79 81 85 90 94 97 99 99 98 98 97 94 90 85 80 77 76 76 74 73 73 73 72 72 72 73 73 72 73 71 68 67 65 63 59 56 56 55 54 52 52
78 80 84 88 93 96 98 98 98 95 92 90 87 83 78 75 73 73 72 71 70 71 71 71 71 71 70 70 70 70 68 67 66 65 64 62 60 58 58 59 57 54 53
81 86 90 94 96 96 95 91 87 83 79 75 73 72 70 69 69 70 71 72 73 74 75 75 74 74 74 74 72 70 68 67 67 66 64 62 62 60 60 60 59 57 53
86 91 94 96 94 89 84 79 75 71 68 67 66 66 66 68 72 75 79 81 82 84 85 84 82 80 79 80 77 74 71 69 68 67 66 64 62 61 60 60 58 57 54
91 95 95 91 85 79 73 70 67 66 65 66 68 70 74 77 80 83 86 87 88 89 89 86 82 79 75 75 74 72 70 66 64 63 61 59 58 57 57 56 53 51 48
93 90 84 79 75 72 69 67 66 67 69 72 74 79 84 86 89 91 92 92 90 88 84 78 73 68 65 63 64 63 62 60 57 55 51 49 50 50 49 47 45 42 39
85 79 75 72 71 70 68 69 70 72 75 79 81 86 90 93 95 95 94 92 88 83 77 70 64 59 56 54 53 52 50 49 46 45 43 43 44 44 42 38 36 36 35
78 74 71 70 70 70 71 73 76 79 82 86 90 94 96 96 95 93 89 84 78 72 66 60 55 49 45 44 43 42 40 40 39 37 36 34 33 34 33 30 28 29 35
71 70 69 69 70 72 75 77 81 86 92 96 98 99 96 91 86 81 75 68 61 56 52 50 48 41 37 35 34 33 33 34 33 30 28 26 25 25 26 26 24 25 33
69 69 70 70 72 75 79 84 90 94 98 99 97 93 87 79 70 63 57 50 44 41 39 40 42 37 31 27 26 27 28 28 26 24 23 22 21 23 25 24 22 23 28
69 69 71 74 78 82 86 90 93 94 93 89 84 78 70 61 52 48 44 39 34 32 31 31 32 32 27 23 22 22 22 21 20 19 19 19 17 20 24 20 18 17 18
71 74 78 82 86 89 90 89 86 79 72 70 66 60 54 49 44 42 39 34 32 31 30 28 27 27 24 19 18 16 15 17 18 17 16 15 17 21 22 18 13 13 13
75 80 84 88 89 87 85 80 71 62 58 57 54 50 46 44 42 40 36 32 32 31 29 26 24 22 17 16 14 12 13 14 13 11 11 13 17 17 16 16 15 17 15
80 85 87 85 80 75 70 65 61 55 48 45 46 45 42 40 38 36 34 33 32 31 27 24 21 15 13 14 11 8 8 8 7 6 7 10 12 14 14 15 20 20 15
84 85 82 74 69 65 63 61 56 50 48 46 45 41 38 35 34 34 36 34 31 26 22 20 15 11 14 12 10 7 4 3 5 5 4 5 9 11 14 18 20 18 14
84 80 74 70 67 65 62 57 52 50 50 50 45 39 35 32 30 34 36 34 30 24 19 15 9 14 14 12 11 5 3 5 6 6 7 8 8 11 14 14 12 10 11
81 75 71 69 64 59 54 52 51 52 51 46 40 36 35 33 31 33 32 29 26 21 15 9 11 16 14 12 10 4 5 8 9 12 13 13 12 13 10 5 4 7 12
79 70 64 60 56 53 54 54 53 51 48 44 40 37 35 33 31 32 28 24 22 15 8 6 16 16 14 13 9 5 9 13 15 16 15 14 13 10 6 1 4 9 12
75 65 61 59 57 57 56 54 51 48 45 42 38 34 31 28 28 28 22 20 17 9 4 14 19 16 14 12 7 9 13 16 18 18 18 16 11 7 3 4 6 9 13
72 64 60 58 58 58 54 50 47 44 41 38 36 33 29 25 25 23 17 15 11 4 11 20 20 18 15 11 10 13 17 21 24 23 19 13 9 7 7 8 10 13 17
67 60 57 56 56 54 50 47 44 41 38 37 35 30 25 22 19 16 12 10 4 8 19 24 22 20 15 13 15 20 25 27 26 21 16 12 11 12 13 14 15 18 22
63 57 55 55 55 52 49 46 43 40 37 33 30 26 23 19 13 11 8 4 6 17 26 26 25 21 17 18 24 28 30 29 24 20 17 16 17 19 19 19 20 21 22
Wind_Direction
301 301 302 301 301 301 300 300 300 300 299 298 298 297 296 295 293 292 291 290 289 288 287 287 287 288 288 289 289 288 288 288 288 287 285 281 279 279 278 279 280 280 280
302 301 300 300 299 299 299 300 300 299 298 298 298 297 295 293 290 288 286 285 285 284 285 285 286 286 287 287 286 287 287 286 286 286 285 282 280 279 278 279 278 277 280
300 300 300 300 300 300 299 299 298 298 298 298 297 296 295 293 290 287 285 284 284 285 286 286 286 286 286 286 286 287 286 285 284 285 285 284 283 282 282 282 278 274 273
302 302 302 302 301 300 299 298 297 297 298 298 298 296 294 292 291 290 289 289 288 289 289 289 289 289 289 288 287 287 286 285 285 285 285 284 283 282 283 281 278 275 269
302 302 302 302 301 300 299 298 298 299 299 298 297 296 296 296 296 295 293 293 293 292 291 290 290 290 290 290 289 287 285 284 283 282 281 281 282 283 283 280 277 274 269
302 302 302 303 303 302 300 300 299 298 297 296 296 297 298 298 297 295 293 292 291 290 289 288 287 287 286 286 286 286 285 284 282 280 280 281 282 282 281 280 278 273 266
304 305 305 305 304 302 300 298 296 296 297 298 299 299 300 299 298 298 297 295 294 293 292 290 288 287 286 284 282 282 283 282 282 281 280 280 280 281 282 281 277 269 264
308 308 307 306 304 301 298 297 297 298 300 301 300 300 300 301 301 300 298 297 296 295 294 293 291 288 286 284 281 280 279 279 280 281 281 282 283 283 281 279 276 270 262
310 309 307 305 301 298 298 298 300 301 301 301 301 302 302 303 303 302 300 298 298 297 296 295 293 290 286 284 281 278 277 277 278 279 280 281 281 279 277 275 274 270 263
310 307 304 302 300 299 299 300 300 301 302 302 303 303 304 304 304 303 302 301 300 299 299 298 296 292 287 283 281 278 277 276 276 276 276 276 274 272 269 270 271 267 256
309 305 302 301 301 301 301 300 301 302 302 303 303 303 303 303 303 302 302 301 301 301 300 299 296 292 287 282 279 278 277 276 275 275 273 270 267 266 266 265 263 261 256
308 306 304 303 302 302 302 303 304 305 304 304 303 303 303 303 302 302 302 302 301 301 300 298 296 292 285 279 275 274 273 274 275 275 275 273 267 262 260 254 254 253 254
309 308 307 306 305 305 306 306 306 306 305 305 304 304 304 304 303 302 301 301 300 300 300 298 296 291 283 275 269 264 264 268 273 278 276 270 261 253 241 242 254 252 254
311 309 308 307 307 307 307 307 307 307 306 306 306 306 306 306 305 302 300 298 298 298 298 297 295 291 283 271 258 252 256 267 277 276 270 262 253 238 235 247 261 262 255
313 312 311 311 310 309 308 307 307 307 308 309 310 310 310 310 307 303 302 303 302 298 297 296 295 290 282 264 243 241 257 272 279 274 258 246 235 231 239 252 266 264 241
316 316 314 312 310 308 307 307 308 311 313 314 315 315 315 314 313 310 310 310 307 305 306 306 298 289 276 247 228 241 266 281 281 266 244 224 221 231 241 247 244 222 207
317 316 314 311 310 309 310 311 312 313 314 314 315 317 317 316 314 312 312 312 310 310 309 306 299 288 260 224 223 241 265 276 272 256 232 222 229 237 243 238 226 212 208
318 317 315 313 313 314 315 316 315 316 317 316 317 317 317 315 314 314 313 313 312 311 310 307 301 277 225 209 218 236 253 276 260 232 231 231 227 228 231 225 210 203 211
321 320 317 316 316 317 318 318 317 317 317 318 318 317 315 315 316 318 319 318 314 311 308 307 296 232 202 201 203 212 262 235 199 216 215 208 207 216 218 204 197 203 226
324 321 318 317 317 317 318 317 316 317 317 318 318 316 313 311 311 313 315 317 314 309 310 305 265 198 194 194 195 209 236 159 160 188 179 158 157 167 175 184 197 226 261
325 321 318 318 317 316 317 316 316 317 318 318 319 317 313 311 312 314 314 315 312 307 306 291 200 187 189 192 195 193 154 150 158 158 146 137 146 157 165 185 249 282 292
324 321 320 321 320 319 318 317 316 317 318 318 318 316 313 312 312 315 315 314 311 304 295 213 179 181 183 186 182 160 146 148 147 143 141 147 154 161 169 202 309 316 319
322 318 317 318 319 320 319 318 317 316 316 316 317 317 313 309 309 313 311 312 310 298 231 173 172 170 170 172 168 148 141 143 141 136 138 146 146 137 105 28 354 346 343
320 316 314 314 317 319 319 317 316 315 315 317 318 317 313 308 310 314 309 308 305 255 171 166 167 165 160 157 150 139 135 135 133 134 136 131 119 94 62 40 20 6 350
318 314 313 314 317 319 319 319 317 316 316 318 320 319 312 307 309 313 307 301 273 177 163 163 162 157 150 144 136 130 130 132 132 130 123 110 90 74 59 41 20 359 343
317 314 313 315 317 317 317 316 316 315 316 318 320 321 320 312 300 302 303 279 181 164 161 161 157 148 140 134 130 128 129 128 125 121 109 93 82 70 55 34 11 355 352